Location: *
(58.7167°N, 26.1833°E)
Time: 19:34:36
(UTC+00:00)

NOSS 2-1 (C) - Pass Details

Date: 25 August 2019
Orbit: 462 x 1742 km, 63.3° (Epoch: 21 September)

Event Time Altitude Azimuth Distance (km) Brightness Sun altitude
Exits shadow 23:41:19 12° 274° (W) 1,680 5.6 -18.6°
Maximum altitude 23:44:52 50° 350° (N) 774 4.4 -18.5°
Drops below altitude 10° 23:49:42 10° 67° (ENE) 2,261 7.1 -18.2°
Sets 23:52:33 0° 72° (ENE) 3,397 8.0 -18.1°
